カタログに戻る

UNAMSAT

運用中科学PO
NORAD 24305·PAYLOAD·🇲🇽 Mexico

打ち上げ Sep 5, 1996 から Plesetsk Cosmodrome

Loading…

次のパス (今後24時間)

TLE

最新Source: Space-Track

元期: Sep 14, 2026, 06:50 UTC

1 24305U 96052B   26257.28501859  .00000049  00000-0  35829-4 0  9990
2 24305  82.9408  14.2388 0030140   6.4367 353.7170 13.74091607504853

AllMySatでUNAMSATをリアルタイム追跡

Download on the App Store